Temp
30 26 25 25 26 26 27 26 26 25 25 25 24 24 24 24 23 23 23 22 22 22 22 22 22 22 22 21 21 22 22 21 21 21 21 20 20 20 20 21 20 20 19
30 26 26 25 26 26 26 26 26 25 25 25 24 24 24 24 23 23 22 22 22 22 22 22 22 21 21 21 21 21 21 21 21 21 21 20 19 20 20 20 20 20 19
29 25 24 25 25 26 26 26 26 25 25 25 24 24 24 24 23 23 22 22 21 21 21 22 22 21 21 21 21 21 21 21 21 22 21 22 21 20 20 20 20 20 19
28 25 24 24 24 25 25 25 25 25 25 24 24 24 24 24 23 23 22 22 21 21 21 21 21 21 21 21 21 21 22 21 22 22 21 22 22 20 19 19 20 20 19
28 27 25 24 24 25 25 25 25 25 25 25 24 24 24 23 23 23 22 22 22 21 21 21 21 21 21 21 21 21 22 22 22 22 23 23 22 20 19 19 19 19 19
28 27 25 24 24 24 24 24 25 25 25 25 24 24 24 24 23 23 22 22 22 22 21 21 21 21 21 21 21 21 21 21 22 22 25 24 22 21 20 19 19 19 19
27 27 23 24 24 24 24 24 24 24 24 24 24 24 24 23 23 23 22 21 21 21 20 21 21 21 20 20 20 20 21 21 21 24 25 24 21 21 20 19 19 19 19
26 26 25 23 23 23 23 23 23 23 23 23 23 23 23 23 23 23 22 21 21 21 21 20 21 21 20 20 20 20 20 21 21 23 25 25 22 21 20 19 19 19 19
26 25 24 24 23 23 23 23 23 23 23 23 23 23 22 22 22 22 22 21 21 21 21 20 20 20 20 20 20 20 20 21 21 24 25 25 22 21 20 19 19 19 19
26 26 25 24 24 24 23 23 23 23 23 23 23 23 22 22 22 21 21 21 21 21 21 21 20 20 20 20 20 20 20 20 20 22 25 24 23 22 20 19 19 19 19
27 26 25 25 25 24 24 24 22 22 22 22 21 22 22 21 21 20 20 20 20 21 21 21 21 20 20 20 20 20 19 19 21 22 25 24 23 22 20 19 19 19 19
26 26 26 24 23 24 25 25 23 23 21 21 21 21 20 21 22 23 23 22 21 20 20 20 21 20 20 20 20 20 18 20 22 24 25 24 23 21 20 20 19 19 19
24 24 22 21 22 24 25 25 25 25 25 24 23 22 22 21 21 21 22 21 20 20 20 20 19 19 20 21 23 22 21 21 23 24 25 23 23 22 20 20 19 19 19
21 20 19 18 17 18 20 24 25 26 26 25 25 22 21 21 20 20 21 21 21 22 21 21 20 21 21 21 22 23 24 24 24 25 25 24 23 22 21 20 20 19 19
19 18 15 15 14 15 15 16 20 21 24 23 23 21 20 20 20 20 20 19 20 20 20 20 20 20 20 20 21 22 23 23 23 24 25 23 23 21 20 20 20 19 19
16 15 13 13 12 13 13 14 15 17 18 18 18 18 18 18 18 18 19 19 19 19 19 19 19 20 19 19 19 20 21 22 22 23 24 22 22 22 21 20 20 20 19
15 13 12 12 11 11 13 12 12 14 14 15 15 15 15 16 16 17 17 17 17 18 18 18 19 19 19 19 19 20 20 20 20 21 22 23 21 22 21 20 20 20 19
13 12 11 11 11 11 11 12 12 12 12 12 12 13 13 13 14 14 15 16 16 16 16 17 17 19 19 18 19 18 19 19 19 20 20 22 22 22 22 21 21 20 19
13 12 11 10 9 11 11 11 12 12 12 12 12 11 12 12 12 13 15 16 15 15 16 16 16 16 17 18 17 18 18 18 19 19 19 20 20 21 21 20 21 20 20
12 12 10 9 8 9 11 12 11 12 12 12 12 11 11 11 11 12 15 15 15 16 17 17 17 17 16 16 16 17 17 18 18 18 18 18 17 17 18 19 19 19 20
12 11 11 10 9 8 9 10 12 11 10 11 11 11 11 10 10 10 10 11 11 12 12 13 15 16 17 18 16 17 17 17 18 17 17 15 17 18 19 17 20 18 19
11 11 11 10 9 9 9 9 9 10 11 10 9 10 10 9 8 7 7 7 8 8 9 9 10 11 14 17 18 17 17 18 17 16 16 16 16 18 20 18 18 18 18
10 10 10 9 9 8 8 10 10 11 12 11 11 9 9 8 7 6 6 6 6 7 7 8 8 9 10 12 14 17 17 19 21 17 16 16 16 17 16 16 17 17 18
9 8 8 8 8 7 7 8 8 9 10 10 10 9 8 7 7 5 5 5 5 5 6 6 7 7 7 9 10 14 16 17 16 19 19 16 16 16 16 17 17 18 18
9 8 8 8 7 6 5 5 6 6 6 7 7 7 8 7 6 5 4 4 4 4 4 5 5 5 6 7 8 9 11 14 15 17 18 21 20 17 17 17 18 19 19
8 7 8 8 8 6 5 5 4 4 3 4 3 3 4 5 5 3 3 3 3 3 3 3 4 4 5 6 7 8 9 10 13 15 16 17 19 20 21 20 20 19 19
Height
757 762 764 766 768 770 771 774 775 778 780 782 785 787 788 789 791 791 793 794 795 797 798 800 801 803 804 805 806 806 806 807 807 807 807 809 810 811 812 812 813 815 816
759 764 764 767 769 771 773 775 777 779 781 783 785 787 789 791 793 794 795 797 797 799 800 801 803 805 806 807 808 808 807 808 808 808 809 810 811 813 814 815 816 816 818
761 766 767 768 771 773 774 777 779 781 783 784 786 788 789 791 793 796 797 799 801 802 802 803 804 807 807 808 809 810 809 809 809 809 809 811 812 814 815 816 817 817 820
764 767 770 770 773 775 776 777 780 782 783 785 787 789 790 792 793 794 797 799 802 803 804 805 806 808 808 809 810 810 810 810 810 810 809 811 812 813 816 818 819 820 821
767 769 771 773 775 777 778 778 779 782 783 785 787 789 791 792 794 795 797 798 800 802 803 805 807 809 809 809 810 810 810 810 811 810 810 810 814 814 816 818 820 821 822
770 771 772 774 776 778 780 781 781 782 783 785 787 788 790 792 794 794 796 798 799 800 802 804 806 808 808 809 809 810 810 810 811 809 809 812 814 813 816 818 821 822 823
773 774 774 774 776 778 780 782 783 784 785 786 787 789 791 792 793 794 796 797 798 800 801 802 805 806 808 808 809 809 810 810 810 808 809 811 813 814 815 818 820 822 823
776 776 777 776 778 779 781 781 783 785 786 786 788 789 791 792 793 794 795 797 797 798 800 802 802 804 805 807 808 809 809 810 810 808 808 809 810 813 814 816 819 822 823
778 778 779 780 779 779 781 781 781 783 784 786 787 788 789 790 792 793 795 796 797 798 799 801 802 803 804 805 806 807 808 809 809 807 806 808 808 812 813 815 817 819 822
779 779 780 781 781 781 781 779 779 779 781 782 784 785 787 788 789 790 791 793 795 797 799 799 801 802 804 803 804 805 806 807 807 806 804 804 805 809 812 814 815 817 819
780 781 781 781 780 780 780 779 779 778 780 781 782 783 784 785 786 787 787 790 791 793 796 798 799 802 802 804 802 803 804 805 806 805 801 799 803 806 809 812 813 815 817
783 782 781 782 781 780 779 779 780 780 779 780 781 782 783 785 784 784 784 783 786 789 792 794 796 798 800 801 800 800 801 802 802 800 798 797 800 803 806 808 810 812 815
787 784 786 785 781 779 778 777 777 777 777 778 779 779 780 781 781 781 781 781 782 782 787 790 792 794 795 796 796 794 796 798 797 795 795 794 797 800 802 805 807 809 811
790 790 789 788 783 779 776 776 774 774 773 774 776 778 778 779 779 778 778 778 779 779 781 784 786 788 790 791 792 792 791 792 791 791 791 791 793 796 798 799 802 804 807
791 790 790 787 785 782 778 774 772 771 772 774 774 778 777 777 777 778 776 776 776 777 778 779 781 783 784 786 786 785 787 787 789 788 787 786 788 792 795 797 799 800 802
795 794 792 788 786 784 780 777 774 773 773 773 773 773 774 775 775 776 775 775 774 773 774 774 776 778 778 779 780 780 779 780 782 785 785 783 785 787 789 791 793 795 798
797 797 795 792 789 786 783 780 778 775 775 774 774 772 773 773 774 774 774 774 773 772 771 771 771 772 772 772 770 772 774 776 777 778 780 782 781 781 782 785 787 790 791
798 798 796 795 792 788 785 784 782 778 781 779 778 775 775 774 774 774 774 773 773 771 770 770 769 766 768 766 759 758 759 767 770 772 775 775 775 776 775 777 780 781 785
799 798 797 795 793 790 788 786 785 783 784 782 781 777 778 775 775 775 775 775 773 771 770 769 768 767 764 759 758 746 749 756 763 764 764 764 767 769 772 773 772 775 778
801 801 799 797 794 791 790 789 787 785 785 784 783 782 780 779 777 776 776 775 774 772 770 769 768 766 763 759 753 748 749 753 754 755 758 757 759 766 771 772 772 768 770
804 803 801 799 797 794 793 791 789 788 787 785 785 784 783 781 780 778 777 775 773 772 772 770 769 766 763 760 758 752 750 751 749 749 741 723 752 754 760 765 766 763 762
807 805 804 802 800 798 797 795 793 791 789 788 787 786 785 784 782 780 779 777 775 774 772 771 771 768 764 761 758 756 750 747 744 741 742 738 740 746 743 750 754 753 757
810 809 808 806 804 802 800 797 794 792 790 789 789 787 785 786 784 781 779 778 776 775 773 772 772 770 765 762 760 757 751 743 738 736 732 732 735 734 738 741 742 746 748
813 812 811 809 807 805 803 801 798 796 793 793 791 790 789 787 786 783 781 778 777 775 774 771 772 771 768 763 761 758 754 751 749 737 732 729 728 732 734 733 735 736 738
813 812 811 809 807 806 805 803 801 800 798 796 794 792 792 790 787 784 782 778 776 777 774 771 770 770 767 763 762 760 757 750 748 744 737 728 725 724 724 726 727 727 730
814 813 811 809 808 807 806 805 804 803 802 799 797 794 794 792 790 787 782 779 775 775 773 772 768 767 764 762 760 759 757 755 748 745 739 732 726 720 718 716 716 718 722
Wind_Speed
11 14 18 17 16 13 11 11 15 17 18 17 15 14 14 15 15 18 19 20 20 20 19 16 13 11 11 10 9 8 6 5 6 7 8 9 10 12 14 17 16 13 16
10 14 18 17 16 14 12 12 15 17 19 17 17 16 15 15 15 17 18 19 19 19 18 15 12 11 10 11 9 7 6 5 5 6 7 9 9 11 13 11 10 13 16
9 10 15 17 16 15 13 12 14 15 17 18 17 17 17 16 16 17 17 18 19 16 17 15 13 11 11 10 8 6 5 5 5 5 10 9 10 10 12 8 12 12 15
8 8 10 16 16 15 13 13 14 15 16 17 18 18 17 17 17 18 18 18 19 17 15 14 13 12 11 9 7 6 4 4 4 6 8 10 10 11 13 10 9 12 16
7 7 8 13 15 14 14 14 14 14 16 17 19 18 17 18 18 18 19 19 19 18 16 15 14 13 11 9 7 6 5 4 4 5 5 10 10 10 13 13 11 12 13
7 5 3 10 12 14 14 14 14 14 15 18 19 19 19 19 19 19 20 19 19 19 18 17 16 15 12 10 9 7 6 6 6 9 5 4 5 10 12 13 12 12 14
8 5 1 6 10 12 13 14 13 12 13 15 18 18 19 19 20 20 21 21 21 20 19 19 18 17 15 13 11 9 8 8 10 13 5 5 5 10 11 13 15 15 15
8 6 4 4 6 9 12 13 13 13 13 14 15 17 18 19 21 20 21 22 22 22 21 19 19 18 17 15 14 12 10 10 9 12 6 8 13 9 12 13 14 15 16
9 8 5 4 5 8 11 13 13 14 14 15 16 17 17 19 20 21 21 22 23 23 22 22 20 19 18 17 15 14 13 12 12 13 8 10 12 12 14 14 15 15 17
10 10 8 5 4 5 9 13 16 17 17 17 18 18 19 19 20 21 22 23 23 24 23 23 22 21 19 17 16 16 15 14 14 15 12 12 12 11 15 15 15 16 17
9 11 10 9 8 8 10 12 13 16 17 17 18 18 19 18 18 19 22 21 22 25 24 23 22 21 20 19 18 18 16 14 14 15 16 17 14 13 17 18 16 17 18
12 13 12 14 14 11 12 11 10 11 11 13 15 14 14 16 17 20 21 23 25 24 25 24 23 22 21 17 18 21 17 17 17 18 16 14 15 15 18 19 20 17 19
14 13 16 16 16 12 13 13 13 14 13 13 15 16 18 15 18 19 21 18 20 24 22 23 22 22 21 20 21 21 18 19 19 19 18 16 17 17 19 20 20 19 19
14 14 15 17 17 15 12 14 16 17 16 15 12 14 16 15 16 17 19 21 21 20 22 24 24 24 24 24 24 23 20 20 22 20 18 20 18 20 22 21 20 21 20
15 17 18 17 18 17 14 14 12 13 12 14 12 12 13 14 16 15 17 18 19 19 20 21 23 23 26 26 27 27 26 22 23 21 19 19 20 20 24 23 21 22 22
16 18 20 20 19 16 16 14 12 9 4 2 5 6 7 8 10 13 15 16 18 19 21 20 22 23 25 24 28 30 29 27 23 25 25 19 19 20 24 26 25 25 23
15 16 17 18 19 17 14 17 14 12 11 7 5 4 4 6 9 9 8 9 12 15 19 20 23 22 22 24 27 28 30 29 28 28 23 26 20 22 23 27 28 28 27
15 17 17 17 18 16 14 11 14 13 14 14 13 9 8 8 10 11 11 14 17 20 15 15 17 25 27 28 30 30 28 29 30 29 27 26 23 19 25 25 30 31 31
16 17 18 17 18 16 14 11 11 14 12 13 15 14 14 13 13 12 11 11 13 16 17 18 21 23 20 27 32 22 25 28 32 33 31 32 28 27 21 19 23 30 34
14 15 16 18 19 16 13 9 8 9 11 13 14 15 14 13 14 12 10 10 13 13 13 15 16 16 20 26 28 23 24 29 32 36 32 27 20 16 22 30 24 26 30
13 14 16 18 19 18 16 14 11 11 11 11 10 11 12 13 14 13 11 12 13 12 14 16 18 20 20 19 20 19 25 31 38 34 36 26 34 38 31 38 38 31 26
13 15 15 17 18 18 16 15 11 10 8 9 11 10 12 13 12 11 13 12 13 13 13 13 15 18 19 18 16 15 6 8 19 27 31 36 39 48 40 42 37 35 32
13 13 13 14 15 16 17 14 14 10 6 11 11 13 13 13 13 12 13 13 13 12 12 14 14 14 17 19 20 14 4 6 9 18 30 31 40 43 37 36 41 35 32
10 10 11 12 14 15 16 15 15 13 13 13 12 14 13 12 13 14 13 13 14 13 12 12 13 15 14 16 18 16 22 21 8 10 15 30 36 37 37 37 41 41 35
11 12 12 11 12 13 14 15 14 14 13 13 12 14 13 12 11 12 15 13 13 14 15 14 15 16 14 15 15 17 18 21 22 10 11 14 23 27 30 34 34 33 35
10 11 12 14 13 15 15 13 13 13 12 12 14 12 14 14 14 15 15 14 13 15 16 16 15 15 16 18 18 17 15 10 13 16 11 12 16 27 25 26 28 32 35
Wind_Direction
125 158 163 167 167 168 172 183 186 185 182 180 178 178 174 169 168 164 163 163 163 165 165 162 163 167 166 163 153 141 127 114 109 107 112 118 123 127 123 120 120 123 134
136 161 167 174 176 172 174 182 184 186 185 182 182 182 182 180 178 174 172 171 171 174 175 171 168 167 173 175 162 147 141 133 124 118 126 126 130 133 130 139 155 145 145
133 164 172 177 183 180 176 181 186 188 190 189 189 189 188 187 185 183 182 180 179 181 185 180 176 172 166 163 162 160 156 145 139 126 139 138 142 147 147 150 146 141 149
116 152 168 180 186 188 185 184 191 199 200 198 196 197 196 195 190 189 188 188 189 193 195 192 186 184 177 175 174 171 171 168 164 161 186 173 149 157 163 164 160 153 158
91 124 181 184 186 193 194 195 195 203 209 206 204 204 203 202 199 197 195 193 196 201 203 201 196 195 188 191 195 193 197 195 190 208 238 144 151 170 176 180 174 167 159
64 90 212 193 189 197 204 206 204 205 208 211 209 209 209 209 208 204 203 202 202 204 206 206 207 206 207 212 217 218 217 217 207 231 188 189 144 178 182 182 176 178 171
47 58 73 185 196 203 210 215 218 217 219 218 216 217 218 218 216 216 211 209 209 210 211 212 215 220 223 228 232 232 229 230 235 252 212 176 184 193 189 181 184 192 190
35 34 33 337 232 221 220 219 222 226 228 228 228 229 228 227 226 225 223 220 217 218 219 221 221 226 227 232 237 240 236 233 253 267 230 211 203 215 199 190 192 198 201
20 21 22 2 325 270 245 238 232 233 234 236 237 235 235 235 233 234 232 229 228 225 226 227 229 230 232 232 236 240 241 236 238 256 229 220 207 227 208 199 201 204 209
16 10 357 335 303 265 261 254 242 237 235 234 236 238 239 239 238 235 234 235 234 234 233 233 233 235 237 235 237 239 241 240 237 260 235 251 201 211 214 209 209 210 213
3 360 351 336 306 283 263 259 265 247 244 242 242 242 239 235 236 235 236 233 242 236 235 236 237 237 240 243 240 240 239 235 239 243 249 223 224 230 221 217 216 219 218
349 343 349 351 329 294 271 255 258 254 244 242 238 241 245 241 238 237 235 240 235 238 237 237 239 239 240 238 242 238 233 236 238 243 238 231 222 234 222 219 221 225 224
344 356 357 347 342 314 284 268 256 253 244 241 246 241 238 241 240 243 240 233 228 233 231 235 234 234 233 232 238 218 225 232 238 241 244 233 234 242 225 221 224 230 227
354 360 358 354 350 341 325 281 256 257 246 245 247 244 245 248 248 248 245 240 235 233 226 225 227 229 230 232 236 253 234 233 234 239 244 237 239 242 230 224 225 222 224
3 2 359 357 355 350 347 337 321 306 279 265 260 260 256 258 260 257 254 251 246 246 238 231 228 228 233 237 235 238 250 241 246 254 247 234 234 242 234 232 230 224 224
7 5 360 2 0 358 358 355 5 25 358 323 231 241 244 253 276 277 273 266 256 247 245 242 237 231 231 233 237 239 240 243 242 240 244 237 233 247 237 231 232 230 231
11 5 9 5 0 3 3 5 7 13 8 15 0 347 325 305 294 288 294 311 295 281 266 255 249 243 238 233 232 231 236 239 239 245 247 248 234 238 240 232 232 234 231
14 11 10 9 7 6 7 11 16 35 29 29 28 12 5 358 341 325 320 318 308 298 296 290 282 266 253 243 235 227 226 238 242 239 238 244 250 236 237 236 234 234 235
14 12 10 11 10 8 5 14 27 30 24 34 21 19 14 8 0 352 338 328 328 325 315 302 291 283 286 277 268 251 233 234 241 240 236 230 234 239 251 242 238 240 238
18 15 13 12 11 11 12 8 16 38 26 25 22 17 12 6 360 354 336 330 328 317 310 311 312 299 290 290 286 289 276 253 243 241 239 234 231 242 267 270 263 250 245
25 19 17 14 14 17 15 9 359 357 9 17 12 9 6 5 1 1 352 345 344 337 325 321 311 300 292 287 285 280 269 271 267 258 252 292 263 258 260 244 252 249 249
29 24 22 20 16 14 9 10 3 352 359 10 9 10 6 4 5 6 0 348 344 335 334 336 331 315 299 294 287 295 282 279 254 246 250 249 244 243 245 237 243 243 245
19 14 19 17 14 14 9 4 2 11 7 8 3 6 7 360 0 4 1 350 343 340 334 332 327 326 315 303 299 297 299 256 267 226 229 227 239 242 243 242 238 239 243
11 8 8 12 13 13 12 9 10 359 353 354 352 352 354 1 359 359 358 355 347 337 332 335 322 316 311 308 310 290 288 278 292 297 240 225 232 238 242 246 241 238 241
15 14 12 6 12 11 13 16 11 4 355 345 348 341 342 346 356 0 352 354 352 339 334 331 323 315 309 302 299 304 303 290 297 279 275 274 229 225 234 237 239 240 238
16 10 7 8 16 14 14 14 14 3 358 357 356 355 342 339 342 347 353 351 356 344 335 324 321 313 310 304 301 297 288 290 297 301 308 301 281 271 261 237 234 236 239